Location: Ethel Rock
(53.4667°N, 4.5667°W)
Time: 05:12:23
(UTC+00:00)

COSMOS 2406 - Pass Details

Date: 24 October 2020
Orbit: 843 x 864 km, 71.0° (Epoch: 25 November)

Event Time Altitude Azimuth Distance (km) Brightness Sun altitude
Rises 05:02:16 0° 195° (SSW) 3,390 6.1 -18.5°
Reaches altitude 10° 05:04:44 10° 191° (SSW) 2,459 5.5 -18.1°
Maximum altitude 05:10:14 58° 114° (ESE) 986 3.8 -17.3°
Drops below altitude 10° 05:15:48 10° 37° (NE) 2,477 6.2 -16.5°
Sets 05:18:17 0° 34° (NE) 3,418 6.9 -16.1°
